Location: Cutler
(25.6150°N, 80.3110°W)
Time: 21:04:02
(UTC-05:00)

Vanguard 2 Rocket - Visible Passes

Search period start: 23 November 2017 00:00
Search period end: 03 December 2017 00:00
Orbit: 556 x 3326 km, 32.9° (Epoch: 23 November)

Date Brightness Start Highest point End Pass type
(mag) Time Alt. Az. Time Alt. Az. Time Alt. Az.
23 Nov 10.4 01:36:28 15° ENE 01:36:28 15° ENE 01:37:41 10° ENE visible
23 Nov 8.6 03:42:16 62° N 03:42:16 62° N 03:51:29 10° ENE visible
23 Nov 7.9 05:48:05 15° WNW 05:58:10 68° NNE 06:04:44 10° E visible
23 Nov 10.8 19:45:40 10° SE 19:46:59 10° SE 19:48:18 10° SE visible
23 Nov 10.4 21:46:53 10° SSW 21:54:13 26° S 21:54:13 26° S visible
24 Nov11.000:40:19ENE00:40:19ENE00:00:02SWvisible
24 Nov 9.3 02:46:07 42° NE 02:46:07 42° NE 02:52:06 10° ENE visible
24 Nov 8.3 04:51:56 35° WNW 04:57:51 62° N 05:05:43 10° E visible
24 Nov 10.3 20:47:56 10° S 20:58:01 26° SSE 20:58:01 26° SSE visible
24 Nov 10.7 23:00:21 10° SW 23:03:49 19° SW 23:03:49 19° SW visible
25 Nov 10.2 01:49:58 20° ENE 01:49:58 20° ENE 01:52:28 10° ENE visible
25 Nov 8.6 03:55:47 60° NNW 03:57:03 62° N 04:06:30 10° E visible
25 Nov 7.8 06:01:35 12° WNW 06:13:04 87° NNE 06:19:36 10° ESE visible
25 Nov 10.4 19:50:31 10° S 20:01:19 19° SE 20:01:51 19° SE visible
25 Nov 10.3 21:59:53 10° SW 22:07:39 31° SSW 22:07:39 31° SSW visible
26 Nov10.800:53:48ENE00:53:48ENE00:13:28WSWvisible
26 Nov 9.1 02:59:37 50° NE 02:59:37 50° NE 03:07:03 10° ENE visible
26 Nov 8.2 05:05:26 30° WNW 05:12:55 73° NNE 05:20:44 10° E visible
26 Nov 10.0 21:00:17 10° SSW 21:11:32 36° SSE 21:11:32 36° SSE visible
26 Nov 10.8 23:14:25 10° WSW 23:17:21 18° SW 23:17:21 18° SW visible
27 Nov 10.0 02:03:28 27° ENE 02:03:28 27° ENE 02:07:20 10° ENE visible
27 Nov 8.6 04:09:17 56° NW 04:12:12 67° N 04:21:34 10° E visible
27 Nov 7.9 06:15:46 10° WNW 06:27:41 69° SSW 06:34:12 10° SE visible
27 Nov 10.1 20:01:42 10° S 20:15:18 29° SE 20:15:27 29° SE visible
27 Nov 10.2 22:13:31 10° SW 22:21:16 34° SW 22:21:16 34° SW visible
28 Nov 10.7 01:07:19 10° ENE 01:07:19 10° ENE 00:27:05 - WSW visible
28 Nov 8.9 03:13:08 59° NE 03:13:08 59° NE 03:22:05 10° E visible
28 Nov 8.1 05:18:56 25° WNW 05:27:47 90° SW 05:35:34 10° ESE visible
28 Nov 10.4 19:04:38 10° S 19:14:23 18° SE 19:19:24 16° ESE visible
28 Nov 9.8 21:13:27 10° SW 21:25:12 46° S 21:25:12 46° S visible
28 Nov 10.8 23:28:57 10° WSW 23:31:01 15° WSW 23:31:01 15° WSW visible
29 Nov 9.8 02:17:00 34° ENE 02:17:00 34° ENE 02:22:20 10° ENE visible
29 Nov 8.5 04:22:48 51° WNW 04:27:16 77° NNE 04:36:33 10° ESE visible
29 Nov 9.8 20:14:13 10° SSW 20:29:08 41° SE 20:29:11 41° SE visible
29 Nov 10.2 22:27:40 10° WSW 22:35:00 33° SW 22:35:00 33° SW visible
30 Nov 10.5 01:20:52 15° ENE 01:20:52 15° ENE 01:22:11 10° ENE visible
30 Nov 8.8 03:26:41 70° NNE 03:26:41 70° NNE 03:37:10 10° E visible
30 Nov 8.3 05:32:30 21° WNW 05:42:19 68° SSW 05:50:06 10° SE visible
30 Nov 10.0 19:15:59 10° S 19:28:10 29° SE 19:33:11 26° ESE visible
30 Nov 9.7 21:27:12 10° SW 21:38:59 53° SSW 21:38:59 53° SSW visible
30 Nov 10.9 23:43:51 10° WSW 00:24:46 - ENE 23:44:48 12° WSW visible
01 Dec 9.5 02:30:35 42° ENE 02:30:35 42° ENE 02:37:23 10° E visible
01 Dec 8.4 04:36:24 45° WNW 04:42:05 87° SSW 04:51:21 10° ESE visible
01 Dec 10.3 18:19:18 10° SSE 18:27:41 17° SE 18:37:10 11° E visible
01 Dec 9.5 20:27:31 10° SW 20:42:59 55° SE 20:42:59 55° SE visible
01 Dec 10.3 22:42:16 10° WSW 22:48:49 31° WSW 22:48:49 31° WSW visible
02 Dec 10.3 01:34:30 20° ENE 01:34:30 20° ENE 01:37:13 10° E visible
02 Dec 8.7 03:40:19 78° NNW 03:41:09 80° NNE 03:52:08 10° ESE visible
02 Dec 8.6 05:46:08 17° WNW 05:56:29 48° SW 06:04:13 10° SSE visible
02 Dec 9.7 19:28:38 10° SSW 19:41:52 41° SE 19:47:00 36° ESE visible
02 Dec 9.7 21:41:27 10° WSW 21:52:49 55° SW 21:52:49 55° SW visible
